Weather Service Report


187 
ASUS43 KBIS 030010
RWRBIS

NWR BROADCAST TEXT
NATIONAL WEATHER SERVICE BISMARCK ND
700 PM CDT THU JUL 02 2015

NOTE: "FAIR" INDICATES FEW OR NO CLOUDS BELOW 12,000 FEET WITH NO
SIGNIFICANT WEATHER AND/OR OBSTRUCTIONS TO VISIBILITY.

  
CITY           SKY/WX    TMP DP  RH WIND       PRES   REMARKS
WILLISTON      MOSUNNY   82  57  42 N10       29.99F                  
MINOT          CLOUDY    77  65  66 NW8       29.95S HAZE             
MINOT AFB      PTSUNNY   80  69  70 NW9       29.94S HAZE             
BISMARCK       CLOUDY    77  62  59 N12       29.97S HAZE             
DICKINSON      SUNNY     79  57  46 N9        30.00F                  
GARRISON         N/A     78  66  66 N7        29.96F                  
HETTINGER ARPT MOSUNNY   78  58  49 N9        30.04S HAZE             
JAMESTOWN      PTSUNNY   76  63  64 S6        29.93S                  
BEACH          FAIR      77  63  61 NE5       30.05S HAZE             
CROSBY         FAIR      75  68  78 N9        30.00S                  
HARVEY         FAIR      75  64  69 W6        29.95S HAZE             
HAZEN          FAIR      77  63  61 N6        29.98S HAZE             
LINTON         MOCLDY    75  68  78 N8        29.96S                  
MANDAN         FAIR      73  63  68 N8        29.99S HAZE             
OAKES            N/A     72  68  88 S7        29.96R                  
STANLEY        FAIR      75  66  73 NW6       30.01F                  
$$
  
CITY           SKY/WX    TMP DP  RH WIND       PRES   REMARKS
GRAND FORKS    CLOUDY    76  66  71 SW9       29.87F                  
GRAND FORKS AF CLOUDY    76  66  71 W6        29.89F                  
DEVILS LAKE    SUNNY     75  61  60 W9        29.91S                  
FARGO          PTSUNNY   76  54  46 S9        29.93F                  
CANDO          FAIR      75  64  69 NW8       29.93S HAZE             
CAVALIER       FAIR      77  64  65 NW7       29.88S HAZE             
GRAFTON        FAIR      79  66  65 NW6       29.88S                  
GWINNER          N/A     75  57  53 SW7       29.95                   
LANGDON        FAIR      75  64  69 NW8       29.93S HAZE             
ROLLA          FAIR      73  66  78 NW8       29.95S                  
WALHALLA       FAIR      75  66  73 MISG      29.88F HAZE             
$$
  
CITY           SKY/WX    TMP DP  RH WIND       PRES   REMARKS
ABERDEEN       SUNNY     72  62  71 S8        29.96F                  
MOBRIDGE       MOSUNNY   79  66  64 N6        29.94F HAZE             
BUFFALO          N/A     79  56  45 N8        30.00S                  
RAPID CITY     SUNNY     78  57  48 N20       30.06S                  
GLASGOW        MOSUNNY   82  53  36 N10       30.02F                  
SIDNEY         SUNNY     81  57  44 N9        30.01S                  
WOLF POINT     SUNNY     83  58  42 W3        30.01S                  
GLENDIVE       MOSUNNY   81  55  41 N10       30.03S                  
MILES CITY     MOSUNNY   83  53  35 N14G23    30.03F                  
BAKER          PTSUNNY   78  56  46 NE7       30.06S                  
$$
  
CITY           SKY/WX    TMP DP  RH WIND       PRES   REMARKS
BILLINGS       MOSUNNY   83  49  30 E14       30.10S                  
GREAT FALLS    SUNNY     85  48  27 E12       30.07F                  
REGINA         SUNNY     79  59  50 N12       30.00S SMOKE            
ESTEVAN        CLOUDY    77  61  57 NW12      29.98F SMOKE            
$$


Return to Home page


Western Regional Climate Center, wrcc@dri.edu